PRIVATE WETTERSTATION BILLIGHEIM-ALLFELD                       ZURCK
Wetterdaten: Sonntag, 28.05.2017
Datum Zeit Temp. A. Temp. A. min Temp. A. max Feuchte A. Luftdruck Regen Wind Richtung Richtung Sonnenschein ET Solar Taupunkt Windchill Windben Empfang
28.05.2017 00:00 16,3 C 16,3 C 16,6 C 82 % 1017,8 hPa 0,0 l/m 0,0 km/h (0 Bft) N 360 0 min 0,025 mm 0 W/m 13,2 C 16,3 C 3,2 km/h (1 Bft) 99 %
28.05.2017 00:10 16,1 C 16,1 C 16,3 C 83 % 1017,8 hPa 0,0 l/m 0,0 km/h (0 Bft) N 360 0 min 0,000 mm 0 W/m 13,2 C 16,1 C 4,8 km/h (1 Bft) 100 %
28.05.2017 00:20 15,9 C 15,9 C 16,1 C 83 % 1017,9 hPa 0,0 l/m 0,0 km/h (0 Bft) N 360 0 min 0,000 mm 0 W/m 13,0 C 15,9 C 1,6 km/h (1 Bft) 100 %
28.05.2017 00:30 15,7 C 15,7 C 15,9 C 84 % 1018,0 hPa 0,0 l/m 0,0 km/h (0 Bft) N 0 0 min 0,000 mm 0 W/m 13,0 C 15,7 C 0,0 km/h (0 Bft) 100 %
28.05.2017 00:40 15,5 C 15,5 C 15,7 C 85 % 1018,0 hPa 0,0 l/m 0,0 km/h (0 Bft) N 360 0 min 0,000 mm 0 W/m 13,0 C 15,5 C 3,2 km/h (1 Bft) 100 %
28.05.2017 00:50 15,3 C 15,3 C 15,5 C 85 % 1018,0 hPa 0,0 l/m 1,6 km/h (1 Bft) N 360 0 min 0,000 mm 0 W/m 12,8 C 15,3 C 4,8 km/h (1 Bft) 100 %
28.05.2017 01:00 15,2 C 15,2 C 15,3 C 85 % 1017,9 hPa 0,0 l/m 0,0 km/h (0 Bft) N 360 0 min 0,025 mm 0 W/m 12,7 C 15,2 C 4,8 km/h (1 Bft) 100 %
28.05.2017 01:10 15,1 C 15,1 C 15,2 C 86 % 1018,0 hPa 0,0 l/m 0,0 km/h (0 Bft) N 360 0 min 0,000 mm 0 W/m 12,8 C 15,1 C 3,2 km/h (1 Bft) 100 %
28.05.2017 01:20 15,1 C 15,1 C 15,1 C 86 % 1017,9 hPa 0,0 l/m 0,0 km/h (0 Bft) N 360 0 min 0,000 mm 0 W/m 12,8 C 15,1 C 3,2 km/h (1 Bft) 100 %
28.05.2017 01:30 15,1 C 15,1 C 15,1 C 86 % 1018,0 hPa 0,0 l/m 0,0 km/h (0 Bft) N 360 0 min 0,000 mm 0 W/m 12,8 C 15,1 C 1,6 km/h (1 Bft) 100 %
28.05.2017 01:40 14,9 C 14,9 C 15,1 C 86 % 1017,9 hPa 0,0 l/m 0,0 km/h (0 Bft) N 0 0 min 0,000 mm 0 W/m 12,6 C 14,9 C 0,0 km/h (0 Bft) 90 %
28.05.2017 01:50 14,9 C 14,8 C 14,9 C 86 % 1018,0 hPa 0,0 l/m 0,0 km/h (0 Bft) N 360 0 min 0,000 mm 0 W/m 12,6 C 14,9 C 1,6 km/h (1 Bft) 100 %
28.05.2017 02:00 14,7 C 14,7 C 14,9 C 86 % 1018,0 hPa 0,0 l/m 0,0 km/h (0 Bft) N 0 0 min 0,000 mm 0 W/m 12,4 C 14,7 C 0,0 km/h (0 Bft) 100 %
28.05.2017 02:10 14,6 C 14,6 C 14,7 C 86 % 1018,0 hPa 0,0 l/m 0,0 km/h (0 Bft) N 0 0 min 0,000 mm 0 W/m 12,3 C 14,6 C 0,0 km/h (0 Bft) 100 %
28.05.2017 02:20 14,3 C 14,3 C 14,6 C 87 % 1018,0 hPa 0,0 l/m 0,0 km/h (0 Bft) N 0 0 min 0,000 mm 0 W/m 12,2 C 14,3 C 0,0 km/h (0 Bft) 100 %
28.05.2017 02:30 14,3 C 14,3 C 14,3 C 87 % 1017,9 hPa 0,0 l/m 0,0 km/h (0 Bft) N 360 0 min 0,000 mm 0 W/m 12,2 C 14,3 C 1,6 km/h (1 Bft) 100 %
28.05.2017 02:40 14,2 C 14,2 C 14,3 C 87 % 1017,9 hPa 0,0 l/m 0,0 km/h (0 Bft) N 0 0 min 0,000 mm 0 W/m 12,1 C 14,2 C 0,0 km/h (0 Bft) 100 %
28.05.2017 02:50 13,9 C 13,9 C 14,2 C 87 % 1017,9 hPa 0,0 l/m 0,0 km/h (0 Bft) N 0 0 min 0,000 mm 0 W/m 11,8 C 13,9 C 0,0 km/h (0 Bft) 100 %
28.05.2017 03:00 13,7 C 13,7 C 13,9 C 88 % 1017,8 hPa 0,0 l/m 0,0 km/h (0 Bft) N 360 0 min 0,000 mm 0 W/m 11,7 C 13,7 C 1,6 km/h (1 Bft) 100 %
28.05.2017 03:10 13,6 C 13,6 C 13,7 C 88 % 1017,8 hPa 0,0 l/m 0,0 km/h (0 Bft) N 0 0 min 0,000 mm 0 W/m 11,6 C 13,6 C 0,0 km/h (0 Bft) 100 %
28.05.2017 03:20 13,4 C 13,4 C 13,6 C 89 % 1017,8 hPa 0,0 l/m 0,0 km/h (0 Bft) N 360 0 min 0,000 mm 0 W/m 11,6 C 13,4 C 1,6 km/h (1 Bft) 100 %
28.05.2017 03:30 13,2 C 13,2 C 13,4 C 89 % 1017,8 hPa 0,0 l/m 1,6 km/h (1 Bft) N 360 0 min 0,000 mm 0 W/m 11,4 C 13,2 C 4,8 km/h (1 Bft) 100 %
28.05.2017 03:40 13,1 C 13,1 C 13,2 C 89 % 1017,7 hPa 0,0 l/m 0,0 km/h (0 Bft) N 360 0 min 0,000 mm 0 W/m 11,3 C 13,1 C 1,6 km/h (1 Bft) 100 %
28.05.2017 03:50 13,0 C 13,0 C 13,1 C 89 % 1017,7 hPa 0,0 l/m 0,0 km/h (0 Bft) N 360 0 min 0,000 mm 0 W/m 11,2 C 13,0 C 1,6 km/h (1 Bft) 100 %
28.05.2017 04:00 12,8 C 12,8 C 13,0 C 89 % 1017,7 hPa 0,0 l/m 0,0 km/h (0 Bft) N 0 0 min 0,000 mm 0 W/m 11,0 C 12,8 C 0,0 km/h (0 Bft) 100 %
28.05.2017 04:10 12,7 C 12,7 C 12,8 C 89 % 1017,6 hPa 0,0 l/m 0,0 km/h (0 Bft) N 360 0 min 0,000 mm 0 W/m 10,9 C 12,7 C 1,6 km/h (1 Bft) 100 %
28.05.2017 04:20 12,6 C 12,6 C 12,7 C 89 % 1017,6 hPa 0,0 l/m 0,0 km/h (0 Bft) N 0 0 min 0,000 mm 0 W/m 10,8 C 12,6 C 0,0 km/h (0 Bft) 100 %
28.05.2017 04:30 12,4 C 12,4 C 12,6 C 90 % 1017,7 hPa 0,0 l/m 0,0 km/h (0 Bft) N 360 0 min 0,000 mm 0 W/m 10,8 C 12,4 C 1,6 km/h (1 Bft) 100 %
28.05.2017 04:40 12,3 C 12,3 C 12,4 C 90 % 1017,7 hPa 0,0 l/m 0,0 km/h (0 Bft) N 0 0 min 0,000 mm 0 W/m 10,7 C 12,3 C 0,0 km/h (0 Bft) 100 %
28.05.2017 04:50 12,2 C 12,2 C 12,3 C 90 % 1017,7 hPa 0,0 l/m 0,0 km/h (0 Bft) N 360 0 min 0,000 mm 0 W/m 10,6 C 12,2 C 1,6 km/h (1 Bft) 100 %
28.05.2017 05:00 12,1 C 12,1 C 12,2 C 90 % 1017,6 hPa 0,0 l/m 0,0 km/h (0 Bft) N 0 0 min 0,000 mm 0 W/m 10,5 C 12,1 C 0,0 km/h (0 Bft) 100 %
28.05.2017 05:10 12,1 C 12,1 C 12,2 C 90 % 1017,6 hPa 0,0 l/m 0,0 km/h (0 Bft) N 0 0 min 0,000 mm 0 W/m 10,5 C 12,1 C 0,0 km/h (0 Bft) 100 %
28.05.2017 05:20 11,9 C 11,9 C 12,1 C 90 % 1017,6 hPa 0,0 l/m 0,0 km/h (0 Bft) N 0 0 min 0,000 mm 0 W/m 10,3 C 11,9 C 0,0 km/h (0 Bft) 100 %
28.05.2017 05:30 11,9 C 11,9 C 11,9 C 90 % 1017,6 hPa 0,0 l/m 0,0 km/h (0 Bft) N 360 0 min 0,000 mm 0 W/m 10,3 C 11,9 C 1,6 km/h (1 Bft) 100 %
28.05.2017 05:40 11,8 C 11,8 C 11,9 C 90 % 1017,6 hPa 0,0 l/m 0,0 km/h (0 Bft) N 0 0 min 0,000 mm 7 W/m 10,2 C 11,8 C 0,0 km/h (0 Bft) 99 %
28.05.2017 05:50 11,7 C 11,7 C 11,8 C 90 % 1017,8 hPa 0,0 l/m 0,0 km/h (0 Bft) N 0 0 min 0,000 mm 9 W/m 10,1 C 11,7 C 0,0 km/h (0 Bft) 100 %
28.05.2017 06:00 11,7 C 11,7 C 11,7 C 90 % 1017,8 hPa 0,0 l/m 0,0 km/h (0 Bft) N 360 0 min 0,000 mm 12 W/m 10,1 C 11,7 C 1,6 km/h (1 Bft) 100 %
28.05.2017 06:10 11,7 C 11,6 C 11,7 C 90 % 1017,7 hPa 0,0 l/m 0,0 km/h (0 Bft) N 0 0 min 0,000 mm 14 W/m 10,1 C 11,7 C 0,0 km/h (0 Bft) 100 %
28.05.2017 06:20 11,7 C 11,7 C 11,7 C 90 % 1017,7 hPa 0,0 l/m 0,0 km/h (0 Bft) N 360 0 min 0,000 mm 16 W/m 10,1 C 11,7 C 1,6 km/h (1 Bft) 100 %
28.05.2017 06:30 11,8 C 11,7 C 11,8 C 90 % 1017,7 hPa 0,0 l/m 0,0 km/h (0 Bft) N-NO 22 0 min 0,000 mm 18 W/m 10,2 C 11,8 C 1,6 km/h (1 Bft) 100 %
28.05.2017 06:40 12,1 C 11,9 C 12,1 C 90 % 1017,8 hPa 0,0 l/m 0,0 km/h (0 Bft) N 0 0 min 0,000 mm 19 W/m 10,5 C 12,1 C 0,0 km/h (0 Bft) 100 %
28.05.2017 06:50 12,2 C 12,1 C 12,2 C 90 % 1017,7 hPa 0,0 l/m 0,0 km/h (0 Bft) N 0 0 min 0,000 mm 21 W/m 10,6 C 12,2 C 0,0 km/h (0 Bft) 100 %
28.05.2017 07:00 12,3 C 12,2 C 12,3 C 90 % 1017,6 hPa 0,0 l/m 0,0 km/h (0 Bft) N 360 0 min 0,000 mm 21 W/m 10,7 C 12,3 C 3,2 km/h (1 Bft) 100 %
28.05.2017 07:10 12,4 C 12,3 C 12,5 C 90 % 1017,7 hPa 0,0 l/m 0,0 km/h (0 Bft) N 360 0 min 0,000 mm 23 W/m 10,8 C 12,4 C 3,2 km/h (1 Bft) 100 %
28.05.2017 07:20 12,7 C 12,4 C 12,7 C 90 % 1017,8 hPa 0,0 l/m 1,6 km/h (1 Bft) N 360 0 min 0,000 mm 25 W/m 11,1 C 12,7 C 4,8 km/h (1 Bft) 100 %
28.05.2017 07:30 13,0 C 12,7 C 13,0 C 90 % 1017,8 hPa 0,0 l/m 1,6 km/h (1 Bft) N 360 0 min 0,000 mm 28 W/m 11,4 C 13,0 C 4,8 km/h (1 Bft) 100 %
28.05.2017 07:40 13,3 C 13,0 C 13,3 C 90 % 1017,9 hPa 0,0 l/m 3,2 km/h (1 Bft) N 360 0 min 0,000 mm 33 W/m 11,7 C 13,3 C 4,8 km/h (1 Bft) 100 %
28.05.2017 07:50 13,6 C 13,3 C 13,6 C 90 % 1017,9 hPa 0,0 l/m 3,2 km/h (1 Bft) N 360 0 min 0,000 mm 40 W/m 12,0 C 13,6 C 4,8 km/h (1 Bft) 100 %
28.05.2017 08:00 14,1 C 13,6 C 14,1 C 90 % 1017,8 hPa 0,0 l/m 3,2 km/h (1 Bft) N 360 0 min 0,025 mm 39 W/m 12,5 C 14,1 C 4,8 km/h (1 Bft) 99 %
28.05.2017 08:10 14,6 C 14,1 C 14,6 C 90 % 1018,0 hPa 0,0 l/m 0,0 km/h (0 Bft) N 360 0 min 0,000 mm 128 W/m 13,0 C 14,6 C 4,8 km/h (1 Bft) 96 %
28.05.2017 08:20 15,4 C 14,6 C 15,4 C 90 % 1017,9 hPa 0,0 l/m 0,0 km/h (0 Bft) N 0 10 min 0,000 mm 388 W/m 13,8 C 15,4 C 0,0 km/h (0 Bft) 97 %
28.05.2017 08:30 16,7 C 15,4 C 16,7 C 88 % 1018,1 hPa 0,0 l/m 0,0 km/h (0 Bft) N 360 10 min 0,000 mm 436 W/m 14,7 C 16,7 C 1,6 km/h (1 Bft) 98 %
28.05.2017 08:40 18,1 C 16,7 C 18,1 C 82 % 1018,0 hPa 0,0 l/m 0,0 km/h (0 Bft) N 0 10 min 0,000 mm 473 W/m 15,0 C 18,1 C 0,0 km/h (0 Bft) 98 %
28.05.2017 08:50 19,2 C 18,1 C 19,2 C 79 % 1018,1 hPa 0,0 l/m 0,0 km/h (0 Bft) N 0 10 min 0,000 mm 506 W/m 15,5 C 19,2 C 0,0 km/h (0 Bft) 98 %
28.05.2017 09:00 20,2 C 19,3 C 20,2 C 75 % 1018,2 hPa 0,0 l/m 0,0 km/h (0 Bft) N 0 10 min 0,203 mm 533 W/m 15,6 C 20,2 C 0,0 km/h (0 Bft) 98 %
28.05.2017 09:10 20,9 C 20,2 C 20,9 C 72 % 1018,0 hPa 0,0 l/m 0,0 km/h (0 Bft) N-NO 22 10 min 0,000 mm 563 W/m 15,7 C 20,9 C 1,6 km/h (1 Bft) 97 %
28.05.2017 09:20 21,9 C 20,9 C 21,9 C 69 % 1018,0 hPa 0,0 l/m 0,0 km/h (0 Bft) N 0 10 min 0,000 mm 591 W/m 15,9 C 21,9 C 0,0 km/h (0 Bft) 98 %
28.05.2017 09:30 22,7 C 21,9 C 22,7 C 66 % 1018,1 hPa 0,0 l/m 0,0 km/h (0 Bft) N 0 10 min 0,000 mm 619 W/m 16,0 C 22,7 C 0,0 km/h (0 Bft) 97 %
28.05.2017 09:40 23,4 C 22,8 C 23,4 C 65 % 1018,0 hPa 0,0 l/m 0,0 km/h (0 Bft) N 0 10 min 0,000 mm 647 W/m 16,4 C 23,4 C 0,0 km/h (0 Bft) 98 %
28.05.2017 09:50 24,1 C 23,4 C 24,1 C 64 % 1018,0 hPa 0,0 l/m 0,0 km/h (0 Bft) O-NO 67 10 min 0,000 mm 671 W/m 16,9 C 24,1 C 1,6 km/h (1 Bft) 98 %
28.05.2017 10:00 24,8 C 24,1 C 24,8 C 63 % 1018,0 hPa 0,0 l/m 0,0 km/h (0 Bft) S-SO 157 10 min 0,381 mm 694 W/m 17,3 C 24,8 C 1,6 km/h (1 Bft) 98 %
28.05.2017 10:10 25,6 C 24,8 C 25,6 C 57 % 1017,9 hPa 0,0 l/m 0,0 km/h (0 Bft) N 0 10 min 0,000 mm 724 W/m 16,4 C 25,6 C 0,0 km/h (0 Bft) 97 %
28.05.2017 10:20 26,1 C 25,6 C 26,1 C 57 % 1017,9 hPa 0,0 l/m 0,0 km/h (0 Bft) N 0 10 min 0,000 mm 740 W/m 16,9 C 26,1 C 0,0 km/h (0 Bft) 98 %
28.05.2017 10:30 26,3 C 26,1 C 26,3 C 52 % 1017,8 hPa 0,0 l/m 0,0 km/h (0 Bft) O-SO 112 10 min 0,000 mm 747 W/m 15,6 C 26,3 C 1,6 km/h (1 Bft) 97 %
28.05.2017 10:40 26,4 C 26,2 C 26,4 C 58 % 1017,8 hPa 0,0 l/m 0,0 km/h (0 Bft) S-SO 157 10 min 0,000 mm 779 W/m 17,5 C 26,4 C 1,6 km/h (1 Bft) 98 %
28.05.2017 10:50 27,0 C 26,4 C 27,0 C 56 % 1017,7 hPa 0,0 l/m 0,0 km/h (0 Bft) S 180 10 min 0,000 mm 802 W/m 17,5 C 27,0 C 1,6 km/h (1 Bft) 98 %
28.05.2017 11:00 27,2 C 27,0 C 27,2 C 54 % 1017,8 hPa 0,0 l/m 1,6 km/h (1 Bft) SO 135 10 min 0,483 mm 828 W/m 17,1 C 27,2 C 6,4 km/h (2 Bft) 98 %
28.05.2017 11:10 27,5 C 27,2 C 27,5 C 55 % 1017,8 hPa 0,0 l/m 0,0 km/h (0 Bft) SO 135 10 min 0,000 mm 838 W/m 17,6 C 27,5 C 1,6 km/h (1 Bft) 98 %
28.05.2017 11:20 27,4 C 27,4 C 27,6 C 48 % 1017,7 hPa 0,0 l/m 0,0 km/h (0 Bft) SO 135 10 min 0,000 mm 846 W/m 15,4 C 27,4 C 1,6 km/h (1 Bft) 97 %
28.05.2017 11:30 27,7 C 27,4 C 27,7 C 53 % 1017,7 hPa 0,0 l/m 0,0 km/h (0 Bft) SO 135 10 min 0,000 mm 868 W/m 17,2 C 27,7 C 1,6 km/h (1 Bft) 98 %
28.05.2017 11:40 28,0 C 27,7 C 28,0 C 54 % 1017,7 hPa 0,0 l/m 0,0 km/h (0 Bft) S-SO 157 10 min 0,000 mm 879 W/m 17,8 C 28,0 C 1,6 km/h (1 Bft) 98 %
28.05.2017 11:50 28,4 C 28,1 C 28,4 C 53 % 1017,6 hPa 0,0 l/m 0,0 km/h (0 Bft) S 180 10 min 0,000 mm 896 W/m 17,9 C 28,4 C 1,6 km/h (1 Bft) 97 %
28.05.2017 12:00 28,7 C 28,4 C 28,7 C 56 % 1017,5 hPa 0,0 l/m 1,6 km/h (1 Bft) SW 225 10 min 0,559 mm 900 W/m 19,0 C 28,7 C 9,7 km/h (2 Bft) 98 %
28.05.2017 12:10 29,2 C 28,7 C 29,2 C 48 % 1017,4 hPa 0,0 l/m 1,6 km/h (1 Bft) SW 225 10 min 0,000 mm 916 W/m 17,0 C 29,2 C 6,4 km/h (2 Bft) 100 %
28.05.2017 12:20 29,2 C 29,2 C 29,3 C 52 % 1017,4 hPa 0,0 l/m 0,0 km/h (0 Bft) W 270 10 min 0,000 mm 925 W/m 18,3 C 29,2 C 8,0 km/h (2 Bft) 100 %
28.05.2017 12:30 29,2 C 29,2 C 29,3 C 48 % 1017,3 hPa 0,0 l/m 4,8 km/h (1 Bft) W-NW 292 10 min 0,000 mm 933 W/m 17,0 C 29,2 C 14,5 km/h (3 Bft) 100 %
28.05.2017 12:40 29,2 C 29,2 C 29,3 C 50 % 1017,4 hPa 0,0 l/m 0,0 km/h (0 Bft) SO 132 10 min 0,000 mm 926 W/m 17,7 C 29,2 C 0,0 km/h (0 Bft) 100 %
28.05.2017 12:50 29,2 C 29,2 C 29,3 C 44 % 1017,4 hPa 0,0 l/m 0,7 km/h (0 Bft) O 84 10 min 0,000 mm 932 W/m 15,7 C 29,2 C 6,4 km/h (2 Bft) 91 %
28.05.2017 13:00 29,5 C 29,2 C 29,5 C 51 % 1017,4 hPa 0,0 l/m 0,0 km/h (0 Bft) N-NW 329 10 min 0,585 mm 933 W/m 18,3 C 29,5 C 1,6 km/h (1 Bft) 100 %
28.05.2017 13:10 29,8 C 29,4 C 29,8 C 49 % 1017,3 hPa 0,0 l/m 3,8 km/h (1 Bft) W-SW 237 10 min 0,000 mm 933 W/m 17,9 C 29,8 C 8,0 km/h (2 Bft) 100 %
28.05.2017 13:20 29,8 C 29,8 C 30,0 C 42 % 1017,3 hPa 0,0 l/m 4,8 km/h (1 Bft) SW 222 10 min 0,000 mm 933 W/m 15,5 C 29,8 C 11,3 km/h (2 Bft) 100 %
28.05.2017 13:30 29,5 C 29,5 C 29,8 C 46 % 1017,2 hPa 0,0 l/m 0,5 km/h (0 Bft) S-SO 152 10 min 0,000 mm 926 W/m 16,6 C 29,5 C 11,3 km/h (2 Bft) 100 %
28.05.2017 13:40 29,6 C 29,4 C 29,6 C 45 % 1017,1 hPa 0,0 l/m 4,0 km/h (1 Bft) W-NW 292 10 min 0,000 mm 930 W/m 16,4 C 29,6 C 9,7 km/h (2 Bft) 100 %
28.05.2017 13:50 29,6 C 29,6 C 29,7 C 46 % 1017,0 hPa 0,0 l/m 1,1 km/h (1 Bft) S 187 10 min 0,000 mm 919 W/m 16,7 C 29,6 C 8,0 km/h (2 Bft) 100 %
28.05.2017 14:00 29,7 C 29,5 C 29,7 C 46 % 1017,0 hPa 0,0 l/m 1,3 km/h (1 Bft) NW 305 10 min 0,635 mm 895 W/m 16,8 C 29,7 C 9,7 km/h (2 Bft) 100 %
28.05.2017 14:10 30,0 C 29,7 C 30,0 C 46 % 1016,8 hPa 0,0 l/m 8,3 km/h (2 Bft) S 190 10 min 0,000 mm 900 W/m 17,1 C 29,8 C 16,1 km/h (3 Bft) 100 %
28.05.2017 14:20 29,8 C 29,8 C 30,0 C 47 % 1016,8 hPa 0,0 l/m 5,7 km/h (1 Bft) S-SW 192 10 min 0,000 mm 902 W/m 17,2 C 29,8 C 12,9 km/h (3 Bft) 100 %
28.05.2017 14:30 29,8 C 29,8 C 29,8 C 46 % 1016,6 hPa 0,0 l/m 2,4 km/h (1 Bft) W-SW 238 10 min 0,000 mm 893 W/m 16,9 C 29,8 C 12,9 km/h (3 Bft) 100 %
28.05.2017 14:40 29,8 C 29,8 C 29,8 C 44 % 1016,7 hPa 0,0 l/m 1,5 km/h (1 Bft) S-SW 196 10 min 0,000 mm 877 W/m 16,2 C 29,8 C 11,3 km/h (2 Bft) 100 %
28.05.2017 14:50 30,1 C 29,7 C 30,1 C 46 % 1016,6 hPa 0,0 l/m 1,5 km/h (1 Bft) SW 234 10 min 0,000 mm 731 W/m 17,2 C 30,1 C 8,0 km/h (2 Bft) 100 %
28.05.2017 15:00 30,3 C 30,1 C 30,3 C 45 % 1016,4 hPa 0,0 l/m 2,8 km/h (1 Bft) S-SW 194 10 min 0,610 mm 840 W/m 17,0 C 30,3 C 9,7 km/h (2 Bft) 100 %
28.05.2017 15:10 30,2 C 30,2 C 30,3 C 42 % 1016,4 hPa 0,0 l/m 0,9 km/h (0 Bft) NW 311 10 min 0,000 mm 735 W/m 15,8 C 30,2 C 9,7 km/h (2 Bft) 99 %
28.05.2017 15:20 30,3 C 30,2 C 30,3 C 44 % 1016,4 hPa 0,0 l/m 1,5 km/h (1 Bft) W-SW 254 0 min 0,000 mm 113 W/m 16,7 C 30,3 C 8,0 km/h (2 Bft) 99 %
28.05.2017 15:30 30,4 C 30,3 C 30,4 C 41 % 1016,4 hPa 0,0 l/m 1,4 km/h (1 Bft) W 259 0 min 0,000 mm 123 W/m 15,6 C 30,4 C 8,0 km/h (2 Bft) 99 %
28.05.2017 15:40 30,4 C 30,4 C 30,5 C 42 % 1016,3 hPa 0,0 l/m 0,3 km/h (0 Bft) W 261 0 min 0,000 mm 97 W/m 16,0 C 30,4 C 4,8 km/h (1 Bft) 99 %
28.05.2017 15:50 30,4 C 30,4 C 30,6 C 44 % 1016,2 hPa 0,0 l/m 0,4 km/h (0 Bft) SW 226 10 min 0,000 mm 316 W/m 16,7 C 30,4 C 4,8 km/h (1 Bft) 97 %
28.05.2017 16:00 30,2 C 30,2 C 30,4 C 40 % 1016,2 hPa 0,0 l/m 0,5 km/h (0 Bft) SO 126 10 min 0,254 mm 754 W/m 15,1 C 30,2 C 6,4 km/h (2 Bft) 97 %
28.05.2017 16:10 30,3 C 30,2 C 30,3 C 47 % 1016,2 hPa 0,0 l/m 0,3 km/h (0 Bft) SW 232 10 min 0,000 mm 594 W/m 17,7 C 30,3 C 4,8 km/h (1 Bft) 97 %
28.05.2017 16:20 30,2 C 30,2 C 30,3 C 44 % 1016,1 hPa 0,0 l/m 0,5 km/h (0 Bft) N 355 10 min 0,000 mm 450 W/m 16,6 C 30,2 C 8,0 km/h (2 Bft) 98 %
28.05.2017 16:30 30,0 C 30,0 C 30,2 C 41 % 1016,0 hPa 0,0 l/m 1,1 km/h (1 Bft) N 11 10 min 0,000 mm 264 W/m 15,3 C 30,0 C 8,0 km/h (2 Bft) 97 %
28.05.2017 16:40 30,0 C 30,0 C 30,0 C 43 % 1015,9 hPa 0,0 l/m 0,5 km/h (0 Bft) N-NW 327 0 min 0,000 mm 98 W/m 16,0 C 30,0 C 8,0 km/h (2 Bft) 97 %
28.05.2017 16:50 29,8 C 29,8 C 30,0 C 45 % 1015,8 hPa 0,0 l/m 0,0 km/h (0 Bft) N-NW 328 0 min 0,000 mm 83 W/m 16,6 C 29,8 C 1,6 km/h (1 Bft) 97 %
28.05.2017 17:00 29,6 C 29,6 C 29,8 C 43 % 1015,7 hPa 0,0 l/m 0,0 km/h (0 Bft) O-NO 63 0 min 0,228 mm 84 W/m 15,7 C 29,6 C 1,6 km/h (1 Bft) 96 %
28.05.2017 17:10 29,7 C 29,6 C 29,7 C 43 % 1015,7 hPa 0,0 l/m 0,1 km/h (0 Bft) O-NO 57 0 min 0,000 mm 88 W/m 15,8 C 29,7 C 3,2 km/h (1 Bft) 97 %
28.05.2017 17:20 29,7 C 29,7 C 29,7 C 48 % 1015,6 hPa 0,0 l/m 0,0 km/h (0 Bft) O-NO 57 0 min 0,000 mm 88 W/m 17,5 C 29,7 C 1,6 km/h (1 Bft) 97 %
28.05.2017 17:30 29,6 C 29,6 C 29,7 C 47 % 1015,7 hPa 0,0 l/m 0,0 km/h (0 Bft) O-NO 61 0 min 0,000 mm 83 W/m 17,1 C 29,6 C 1,6 km/h (1 Bft) 97 %
28.05.2017 17:40 29,4 C 29,4 C 29,6 C 51 % 1015,5 hPa 0,0 l/m 0,0 km/h (0 Bft) O-NO 60 0 min 0,000 mm 81 W/m 18,2 C 29,4 C 1,6 km/h (1 Bft) 97 %
28.05.2017 17:50 29,2 C 29,2 C 29,4 C 42 % 1015,5 hPa 0,0 l/m 0,3 km/h (0 Bft) O 88 0 min 0,000 mm 77 W/m 14,9 C 29,2 C 6,4 km/h (2 Bft) 97 %
28.05.2017 18:00 29,1 C 29,1 C 29,2 C 49 % 1015,4 hPa 0,0 l/m 0,0 km/h (0 Bft) O 88 0 min 0,076 mm 76 W/m 17,3 C 29,1 C 1,6 km/h (1 Bft) 97 %
28.05.2017 18:10 28,9 C 28,9 C 29,1 C 46 % 1015,5 hPa 0,0 l/m 0,0 km/h (0 Bft) O 88 0 min 0,000 mm 76 W/m 16,1 C 28,9 C 1,6 km/h (1 Bft) 97 %
28.05.2017 18:20 28,9 C 28,8 C 28,9 C 49 % 1015,4 hPa 0,0 l/m 0,0 km/h (0 Bft) O 92 0 min 0,000 mm 76 W/m 17,1 C 28,9 C 1,6 km/h (1 Bft) 98 %
28.05.2017 18:30 28,7 C 28,7 C 28,9 C 48 % 1015,3 hPa 0,0 l/m 0,0 km/h (0 Bft) O 92 0 min 0,000 mm 74 W/m 16,6 C 28,7 C 1,6 km/h (1 Bft) 97 %
28.05.2017 18:40 28,6 C 28,6 C 28,8 C 55 % 1015,2 hPa 0,0 l/m 0,0 km/h (0 Bft) O 92 0 min 0,000 mm 67 W/m 18,7 C 28,6 C 0,0 km/h (0 Bft) 97 %
28.05.2017 18:50 28,3 C 28,3 C 28,6 C 50 % 1015,1 hPa 0,0 l/m 0,1 km/h (0 Bft) O 92 0 min 0,000 mm 74 W/m 16,9 C 28,3 C 3,2 km/h (1 Bft) 98 %
28.05.2017 19:00 28,1 C 28,1 C 28,3 C 49 % 1015,2 hPa 0,0 l/m 0,0 km/h (0 Bft) O 92 0 min 0,051 mm 81 W/m 16,4 C 28,1 C 0,0 km/h (0 Bft) 97 %
28.05.2017 19:10 27,9 C 27,9 C 28,1 C 51 % 1015,2 hPa 0,0 l/m 0,0 km/h (0 Bft) O 88 0 min 0,000 mm 81 W/m 16,8 C 27,9 C 0,0 km/h (0 Bft) 97 %
28.05.2017 19:20 27,8 C 27,8 C 27,9 C 49 % 1015,3 hPa 0,0 l/m 0,0 km/h (0 Bft) O 88 0 min 0,000 mm 83 W/m 16,1 C 27,8 C 0,0 km/h (0 Bft) 97 %
28.05.2017 19:30 27,6 C 27,6 C 27,8 C 51 % 1015,2 hPa 0,0 l/m 0,0 km/h (0 Bft) O-NO 77 0 min 0,000 mm 72 W/m 16,5 C 27,6 C 0,0 km/h (0 Bft) 98 %
28.05.2017 19:40 27,3 C 27,3 C 27,6 C 49 % 1015,2 hPa 0,0 l/m 0,0 km/h (0 Bft) O-NO 76 0 min 0,000 mm 56 W/m 15,6 C 27,3 C 1,6 km/h (1 Bft) 97 %
28.05.2017 19:50 26,9 C 26,9 C 27,3 C 49 % 1015,3 hPa 0,0 l/m 0,0 km/h (0 Bft) O-NO 76 0 min 0,000 mm 47 W/m 15,3 C 26,9 C 0,0 km/h (0 Bft) 97 %
28.05.2017 20:00 26,4 C 26,4 C 26,9 C 51 % 1015,3 hPa 0,0 l/m 0,0 km/h (0 Bft) O-NO 76 0 min 0,051 mm 37 W/m 15,4 C 26,4 C 1,6 km/h (1 Bft) 98 %
28.05.2017 20:10 25,9 C 25,9 C 26,4 C 52 % 1015,3 hPa 0,0 l/m 0,0 km/h (0 Bft) O-NO 76 0 min 0,000 mm 32 W/m 15,3 C 25,9 C 0,0 km/h (0 Bft) 97 %
28.05.2017 20:20 25,5 C 25,5 C 25,9 C 52 % 1015,3 hPa 0,0 l/m 0,0 km/h (0 Bft) O-NO 76 0 min 0,000 mm 25 W/m 14,9 C 25,5 C 0,0 km/h (0 Bft) 97 %
28.05.2017 20:30 25,2 C 25,2 C 25,5 C 50 % 1015,2 hPa 0,0 l/m 0,0 km/h (0 Bft) O-NO 76 0 min 0,000 mm 18 W/m 14,0 C 25,2 C 0,0 km/h (0 Bft) 97 %
28.05.2017 20:40 24,9 C 24,9 C 25,2 C 54 % 1015,3 hPa 0,0 l/m 0,1 km/h (0 Bft) O 82 0 min 0,000 mm 12 W/m 14,9 C 24,9 C 3,2 km/h (1 Bft) 98 %
28.05.2017 20:50 24,4 C 24,4 C 24,9 C 57 % 1015,4 hPa 0,0 l/m 0,0 km/h (0 Bft) O 82 0 min 0,000 mm 11 W/m 15,3 C 24,4 C 1,6 km/h (1 Bft) 97 %
28.05.2017 21:00 23,8 C 23,8 C 24,4 C 57 % 1015,5 hPa 0,0 l/m 0,0 km/h (0 Bft) O 82 0 min 0,025 mm 5 W/m 14,8 C 23,8 C 1,6 km/h (1 Bft) 97 %
28.05.2017 21:10 23,2 C 23,2 C 23,8 C 59 % 1015,4 hPa 0,0 l/m 1,6 km/h (1 Bft) O 90 0 min 0,000 mm 5 W/m 14,7 C 23,2 C 4,8 km/h (1 Bft) 100 %
28.05.2017 21:20 22,9 C 22,9 C 23,2 C 60 % 1015,5 hPa 0,0 l/m 0,0 km/h (0 Bft) O 90 0 min 0,000 mm 0 W/m 14,7 C 22,9 C 3,2 km/h (1 Bft) 100 %
28.05.2017 21:30 22,6 C 22,6 C 22,9 C 62 % 1015,6 hPa 0,0 l/m 0,0 km/h (0 Bft) N 0 0 min 0,000 mm 0 W/m 14,9 C 22,6 C 0,0 km/h (0 Bft) 100 %
28.05.2017 21:40 22,1 C 22,1 C 22,6 C 63 % 1015,6 hPa 0,0 l/m 0,0 km/h (0 Bft) O 90 0 min 0,000 mm 0 W/m 14,7 C 22,1 C 1,6 km/h (1 Bft) 100 %
28.05.2017 21:50 21,8 C 21,8 C 22,6 C 65 % 1015,9 hPa 0,0 l/m 0,5 km/h (0 Bft) O-NO 73 0 min 0,000 mm 0 W/m 14,9 C 21,8 C 4,8 km/h (1 Bft) 97 %
28.05.2017 22:00 21,4 C 21,4 C 21,8 C 66 % 1015,9 hPa 0,0 l/m 0,0 km/h (0 Bft) O-NO 73 0 min 0,000 mm 0 W/m 14,8 C 21,4 C 0,0 km/h (0 Bft) 97 %
28.05.2017 22:10 21,1 C 21,1 C 21,4 C 69 % 1016,0 hPa 0,0 l/m 2,1 km/h (1 Bft) O-NO 61 0 min 0,000 mm 0 W/m 15,2 C 21,1 C 4,8 km/h (1 Bft) 98 %
28.05.2017 22:20 20,7 C 20,7 C 21,1 C 71 % 1016,1 hPa 0,0 l/m 1,6 km/h (1 Bft) O-NO 67 0 min 0,000 mm 0 W/m 15,2 C 20,7 C 4,8 km/h (1 Bft) 100 %
28.05.2017 22:30 20,4 C 20,4 C 20,7 C 73 % 1016,0 hPa 0,0 l/m 3,2 km/h (1 Bft) NO 45 0 min 0,000 mm 0 W/m 15,4 C 20,4 C 4,8 km/h (1 Bft) 100 %
28.05.2017 22:40 20,2 C 20,2 C 20,4 C 73 % 1016,1 hPa 0,0 l/m 3,2 km/h (1 Bft) NO 45 0 min 0,000 mm 0 W/m 15,2 C 20,2 C 4,8 km/h (1 Bft) 100 %
28.05.2017 22:50 19,9 C 19,9 C 20,2 C 75 % 1015,9 hPa 0,0 l/m 1,6 km/h (1 Bft) NO 45 0 min 0,000 mm 0 W/m 15,3 C 19,9 C 4,8 km/h (1 Bft) 100 %
28.05.2017 23:00 19,7 C 19,7 C 19,9 C 76 % 1015,8 hPa 0,0 l/m 1,6 km/h (1 Bft) NO 45 0 min 0,025 mm 0 W/m 15,3 C 19,7 C 3,2 km/h (1 Bft) 100 %
28.05.2017 23:10 19,6 C 19,6 C 19,7 C 77 % 1015,8 hPa 0,0 l/m 3,2 km/h (1 Bft) NO 45 0 min 0,000 mm 0 W/m 15,5 C 19,6 C 6,4 km/h (2 Bft) 100 %
28.05.2017 23:20 19,3 C 19,3 C 19,6 C 78 % 1015,8 hPa 0,0 l/m 3,2 km/h (1 Bft) N-NO 22 0 min 0,000 mm 0 W/m 15,4 C 19,3 C 4,8 km/h (1 Bft) 98 %
28.05.2017 23:30 19,1 C 19,1 C 19,3 C 79 % 1015,8 hPa 0,0 l/m 3,2 km/h (1 Bft) N-NO 22 0 min 0,000 mm 0 W/m 15,4 C 19,1 C 9,7 km/h (2 Bft) 100 %
28.05.2017 23:40 18,8 C 18,8 C 19,1 C 81 % 1015,8 hPa 0,0 l/m 3,2 km/h (1 Bft) N-NW 337 0 min 0,000 mm 0 W/m 15,5 C 18,8 C 11,3 km/h (2 Bft) 100 %
28.05.2017 23:50 18,6 C 18,6 C 18,8 C 81 % 1015,6 hPa 0,0 l/m 0,0 km/h (0 Bft) N 360 0 min 0,000 mm 0 W/m 15,3 C 18,6 C 4,8 km/h (1 Bft) 99 %
_ Min-Zeit 06:10 06:10 06:00 16:00 18:50 - 00:00 - - - - - 05:50 05:50 00:30 01:40
Minimum _ 11,6 C 11,6 C 11,7 C 40 % 1015,1 hPa - 0,0 km/h (0 Bft) - - - - - 10,1 C 11,7 C 0,0 km/h (0 Bft) 90 %
_ Max-Zeit 15:50 15:40 15:50 04:30 09:00 00:00 14:10 - - 08:20 14:00 12:30 12:00 15:30 14:10 00:30
Maximum _ 30,6 C 30,4 C 30,6 C 90 % 1018,2 hPa 0,0 l/m 8,3 km/h
S (2 Bft)
- - 10 min 0,635 mm 933 W/m 19,0 C 30,4 C 16,1 km/h
S-SW (3 Bft)
100 %
Durchschnitt _ 21,8 C 21,6 C 21,9 C 67 % 1016,9 hPa #0,0 l/m 0,7 km/h (0 Bft) N - #7:50 h #4,241 mm 402 W/m 14,6 C 21,8 C 3,3 km/h (1 Bft) 99 %
PRIVATE WETTERSTATION BILLIGHEIM-ALLFELD - www.neckar-odenwald-wetter.de - Holger Sonntag